[[{"header":{"parameterUnit":"m.s-1","parameterCategory":1,"la1":30.2991,"la2":30.254,"lo1":-89.0895,"lo2":-89.0444,"dy":0.0017,"dx":0.0017,"nx":28,"ny":28,"refTime":"2024-03-23T21:00:00:Z","depth":0,"parameterNumber":2,"parameterNumberName":"U-component_of_WINDS"},"data":[0,0,0,0,0,0,0,0,0,0,0,0,0,0,0,0,0,0,0,0,0,0,0,0,0,0,0,0,0,0,0,0,0,0,0,0,0,0,0,0,0,0,0,0,0,0,0,0,0,0,0,0,0,0,0,0,0,0,-0.3239,-0.3239,0,-0.3245,-0.3245,-0.3245,-0.3254,-0.3254,-0.3254,-0.3254,-0.3261,-0.3262,-0.3262,0,0,0,0,0,0,0,0,0,0,0,0,0,-0.3233,-0.3233,-0.3239,-0.3239,-0.3239,-0.3245,-0.3245,-0.3245,-0.3254,-0.3254,-0.3254,-0.3254,-0.3261,-0.3262,-0.3262,0,0,0,0,0,0,0,0,0,0,0,0,0,-0.3237,-0.3233,-0.3239,-0.3244,-0.3244,-0.3245,-0.3245,-0.3245,-0.3254,-0.3254,-0.3254,-0.3254,-0.3261,-0.3262,-0.3262,-0.3258,0,0,-0.3262,-0.3262,0,0,0,0,0,0,0,0,-0.3237,-0.3237,-0.3243,-0.3244,-0.3244,-0.3249,-0.3246,-0.325,-0.3253,-0.325,-0.3254,-0.3254,-0.3257,-0.3258,-0.3258,-0.3259,-0.3259,-0.3262,-0.3262,-0.3262,-0.3262,0,0,0,0,0,0,0,-0.3237,-0.3237,-0.3241,-0.3243,-0.3244,-0.3245,-0.3246,-0.3247,-0.3252,-0.325,-0.3251,-0.3252,-0.3257,-0.3258,-0.3259,-0.3259,-0.3262,-0.3262,-0.3262,-0.3262,-0.3253,-0.3253,0,0,0,0,0,0,-0.3236,-0.3237,-0.3241,-0.3242,-0.3241,-0.3245,-0.3246,-0.3247,-0.3252,-0.3253,-0.3251,-0.3252,-0.3258,-0.3258,-0.3259,-0.3253,-0.3262,-0.3262,-0.3262,-0.3254,-0.3253,-0.3253,0,0,0,0,0,0,-0.3235,-0.3236,-0.3241,-0.3239,-0.324,-0.3245,-0.3246,-0.3247,-0.3248,-0.3253,-0.3254,-0.3251,-0.3258,-0.3259,-0.3257,-0.3254,-0.3262,-0.3262,-0.3254,-0.3253,-0.3253,-0.3244,0,0,0,0,0,0,-0.3235,-0.3236,-0.3235,-0.3239,-0.324,-0.324,-0.3246,-0.3247,-0.3248,-0.3249,-0.3253,-0.3254,-0.3258,-0.3257,-0.3258,-0.3254,-0.3262,-0.3254,-0.3254,-0.3253,-0.3244,-0.3243,-0.3242,0,0,0,0,0,-0.3235,-0.3233,-0.3235,-0.3236,-0.3239,-0.324,-0.324,-0.3245,-0.3248,-0.3246,-0.3249,-0.3254,-0.3254,-0.3257,-0.3258,-0.3254,-0.3255,-0.3254,-0.3253,-0.3245,-0.3243,-0.3242,0,0,0,0,0,0,-0.323,-0.3234,-0.3236,-0.3236,-0.3237,-0.3241,-0.324,-0.3243,-0.3244,-0.3245,-0.3251,-0.3252,-0.3249,-0.3252,-0.3255,-0.3249,-0.3255,-0.3254,-0.3248,-0.3247,-0.3245,-0.3245,-0.3262,0,0,0,0,0,-0.3228,-0.3228,-0.3232,-0.3231,-0.3231,-0.3235,-0.3236,-0.3239,-0.3241,-0.3242,-0.3245,-0.3246,-0.3246,-0.3247,-0.3247,-0.3244,-0.3244,-0.3242,-0.324,-0.3239,-0.3239,-0.3235,-0.3233,-0.3251,-0.3251,-0.3251,0,0,-0.3226,-0.3228,-0.3228,-0.323,-0.3231,-0.3231,-0.3236,-0.3236,-0.3235,-0.3242,-0.324,-0.3242,-0.3244,-0.3241,-0.324,-0.3243,-0.3234,-0.3238,-0.3237,-0.3238,-0.3234,-0.3232,-0.3231,-0.325,-0.325,-0.325,0,0,-0.3221,-0.3223,-0.3221,-0.3222,-0.3224,-0.3226,-0.3225,-0.3228,-0.3229,-0.3227,-0.3231,-0.323,-0.3231,-0.3232,-0.3232,-0.3223,-0.3227,-0.3223,-0.3216,-0.3213,-0.3211,-0.321,-0.3205,-0.3204,-0.3222,-0.3222,-0.3222,0,-0.3218,-0.3217,-0.322,-0.3219,-0.3219,-0.3223,-0.322,-0.3221,-0.3223,-0.3222,-0.3225,-0.3224,-0.3226,-0.3222,-0.3219,-0.322,-0.3219,-0.3223,-0.3211,-0.321,-0.3209,-0.3205,-0.3203,-0.3222,-0.3222,-0.3222,-0.3222,0,-0.3212,-0.3211,-0.321,-0.321,-0.3209,-0.3208,-0.321,-0.3209,-0.321,-0.3212,-0.3209,-0.321,-0.321,-0.3209,-0.3212,-0.3205,-0.3206,-0.321,-0.3216,-0.3206,-0.3202,-0.3201,-0.3221,-0.3221,-0.3221,-0.3221,0,0,-0.3207,-0.3206,-0.3206,-0.3205,-0.3205,-0.3204,-0.3201,-0.32,-0.3198,-0.3198,-0.3195,-0.3194,-0.3196,-0.3196,-0.3199,-0.3195,-0.3186,-0.3199,-0.3199,-0.3196,-0.3176,-0.3173,-0.3171,-0.3188,-0.3188,-0.3187,-0.3175,0,-0.3202,-0.3197,-0.3198,-0.3193,-0.3191,-0.3194,-0.3191,-0.319,-0.319,-0.3188,-0.3189,-0.3187,-0.3191,-0.3191,-0.3187,-0.3188,-0.3182,-0.3189,-0.3184,-0.3184,-0.3184,-0.317,-0.3167,-0.3156,-0.3174,-0.3174,-0.3174,0,-0.3196,-0.3194,-0.3189,-0.3186,-0.3186,-0.3183,-0.318,-0.3179,-0.3177,-0.3177,-0.3175,-0.3178,-0.3173,-0.3178,-0.3171,-0.3176,-0.3174,-0.3173,-0.3173,-0.3173,-0.3179,-0.3169,-0.3153,-0.3151,-0.3171,-0.3172,-0.3172,0,-0.3191,-0.3187,-0.3183,-0.3182,-0.318,-0.3177,-0.3176,-0.3175,-0.3173,-0.317,-0.3169,-0.3166,-0.3165,-0.3162,-0.3162,-0.3166,-0.3155,-0.316,-0.3154,-0.3154,-0.3153,-0.3153,-0.3136,-0.3152,-0.3152,-0.3152,-0.3152,0,-0.3186,-0.3182,-0.318,-0.3178,-0.3173,-0.3173,-0.3168,-0.3167,-0.3165,-0.3161,-0.3163,-0.3159,-0.316,-0.3156,-0.3157,-0.315,-0.315,-0.3149,-0.3149,-0.3149,-0.3149,-0.3148,-0.3149,-0.3151,-0.3151,-0.3151,-0.3151,0,-0.318,-0.3179,-0.3174,-0.3171,-0.317,-0.3167,-0.3164,-0.316,-0.3159,-0.3155,-0.3153,-0.3152,-0.3147,-0.3147,-0.3142,-0.3142,-0.3133,-0.3135,-0.3134,-0.3134,-0.3128,-0.3128,-0.311,-0.3107,-0.3125,-0.3124,-0.3124,0,-0.3177,-0.3174,-0.3169,-0.3167,-0.3165,-0.3161,-0.3158,-0.3157,-0.3154,-0.315,-0.3147,-0.3142,-0.3138,-0.3129,-0.3128,-0.3123,-0.3124,-0.3118,-0.3123,-0.3122,-0.3123,-0.3123,-0.3122,-0.3117,-0.3117,-0.3116,-0.3116,0,-0.3171,-0.3169,-0.3165,-0.316,-0.3156,-0.3153,-0.3149,-0.3147,-0.3145,-0.3141,-0.3135,-0.3132,-0.3125,-0.312,-0.3114,-0.3112,-0.3114,-0.3114,-0.3112,-0.3112,-0.3111,-0.3111,-0.3131,-0.3115,-0.3115,-0.3115,-0.3115,-0.3115,-0.3166,-0.3162,-0.3158,-0.3152,-0.3149,-0.3144,-0.314,-0.3138,-0.3133,-0.3127,-0.3126,-0.3119,-0.3115,-0.3107,-0.3105,-0.3099,-0.3101,-0.3099,-0.3098,-0.3097,-0.3096,-0.3112,-0.3098,-0.3098,-0.3098,-0.3098,-0.3098,0,-0.3159,-0.3155,-0.315,-0.3144,-0.3139,-0.3139,-0.3134,-0.313,-0.3124,-0.3119,-0.3114,-0.3106,-0.3099,-0.3096,-0.3089,-0.3085,-0.3085,-0.3083,-0.3084,-0.3083,-0.3095,-0.3097,-0.3083,-0.3083,-0.3083,-0.3083,-0.3083,-0.3083,-0.3155,-0.3148,-0.3145,-0.3135,-0.3132,-0.3125,-0.3121,-0.3117,-0.3113,-0.3103,-0.3097,-0.3095,-0.309,-0.3082,-0.3076,-0.3075,-0.3072,-0.3069,-0.3069,-0.3081,-0.3082,-0.3084,-0.3085,-0.3069,-0.3069,-0.3056,-0.3056,-0.3056]},{"header":{"parameterUnit":"m.s-1","parameterCategory":1,"la1":30.2991,"la2":30.254,"lo1":-89.0895,"lo2":-89.0444,"dy":0.0017,"dx":0.0017,"nx":28,"ny":28,"refTime":"2024-03-23T21:00:00:Z","depth":0,"parameterNumber":3,"parameterNumberName":"V-component_of_WINDS"},"data":[0,0,0,0,0,0,0,0,0,0,0,0,0,0,0,0,0,0,0,0,0,0,0,0,0,0,0,0,0,0,0,0,0,0,0,0,0,0,0,0,0,0,0,0,0,0,0,0,0,0,0,0,0,0,0,0,0,0,-8.1986,-8.1986,0,-8.2032,-8.2032,-8.2033,-8.198,-8.1978,-8.1976,-8.1974,-8.2016,-8.2019,-8.2021,0,0,0,0,0,0,0,0,0,0,0,0,0,-8.1846,-8.1849,-8.1985,-8.1986,-8.1987,-8.2032,-8.2032,-8.2033,-8.198,-8.1978,-8.1975,-8.1973,-8.2015,-8.2018,-8.2022,0,0,0,0,0,0,0,0,0,0,0,0,0,-8.1901,-8.185,-8.1985,-8.1966,-8.1964,-8.2032,-8.2033,-8.2033,-8.1981,-8.1978,-8.1975,-8.1972,-8.2013,-8.2018,-8.2022,-8.2109,0,0,-8.2036,-8.2038,0,0,0,0,0,0,0,0,-8.1898,-8.1906,-8.1968,-8.1967,-8.1966,-8.1997,-8.1999,-8.2059,-8.1981,-8.1974,-8.1974,-8.197,-8.2011,-8.2016,-8.2031,-8.2111,-8.2113,-8.2036,-8.2039,-8.2041,-8.2042,0,0,0,0,0,0,0,-8.1894,-8.1904,-8.2004,-8.1969,-8.1968,-8.1953,-8.1958,-8.201,-8.2009,-8.1975,-8.1971,-8.1977,-8.201,-8.2027,-8.2032,-8.2114,-8.2036,-8.204,-8.2043,-8.2044,-8.2269,-8.2272,0,0,0,0,0,0,-8.1893,-8.1901,-8.2002,-8.2005,-8.1924,-8.1958,-8.1963,-8.199,-8.2008,-8.2008,-8.198,-8.1975,-8.2021,-8.2026,-8.2033,-8.2137,-8.2041,-8.2045,-8.2047,-8.2266,-8.227,-8.2273,0,0,0,0,0,0,-8.1891,-8.1903,-8.2,-8.1952,-8.1963,-8.1964,-8.1994,-8.1992,-8.2009,-8.2012,-8.2011,-8.1997,-8.2019,-8.2027,-8.2091,-8.2138,-8.2047,-8.2051,-8.2262,-8.2267,-8.2272,-8.2346,0,0,0,0,0,0,-8.1887,-8.1902,-8.1936,-8.1953,-8.1966,-8.206,-8.1997,-8.1996,-8.2018,-8.2011,-8.2028,-8.2028,-8.2017,-8.2085,-8.2096,-8.2142,-8.2054,-8.2258,-8.2264,-8.227,-8.234,-8.2353,-8.2365,0,0,0,0,0,-8.1882,-8.1954,-8.1938,-8.1951,-8.2009,-8.2063,-8.207,-8.2057,-8.2021,-8.2055,-8.2058,-8.2028,-8.2131,-8.2092,-8.2104,-8.2152,-8.2255,-8.2262,-8.227,-8.2334,-8.2351,-8.2364,0,0,0,0,0,0,-8.1939,-8.1955,-8.1938,-8.2018,-8.204,-8.2053,-8.2095,-8.2074,-8.2105,-8.2097,-8.2078,-8.2082,-8.2152,-8.2158,-8.2115,-8.2238,-8.2187,-8.2197,-8.2232,-8.2248,-8.226,-8.2257,-8.2058,0,0,0,0,0,-8.1962,-8.2006,-8.2016,-8.2086,-8.2098,-8.2095,-8.2118,-8.2106,-8.2127,-8.2135,-8.2142,-8.2162,-8.2199,-8.2223,-8.2257,-8.234,-8.2343,-8.2379,-8.2392,-8.2402,-8.2411,-8.2457,-8.2473,-8.2298,-8.2298,-8.2298,0,0,-8.2007,-8.2022,-8.205,-8.2098,-8.2113,-8.2158,-8.2103,-8.2152,-8.2185,-8.2142,-8.2205,-8.221,-8.2231,-8.2306,-8.2339,-8.2313,-8.2461,-8.2412,-8.242,-8.2423,-8.2466,-8.2483,-8.2498,-8.2303,-8.2302,-8.2301,0,0,-8.2114,-8.2129,-8.219,-8.2207,-8.2232,-8.223,-8.2245,-8.2262,-8.2265,-8.2329,-8.2298,-8.2335,-8.2399,-8.2416,-8.2433,-8.2548,-8.2522,-8.256,-8.2625,-8.267,-8.2684,-8.2696,-8.2738,-8.2754,-8.2569,-8.2569,-8.2569,0,-8.2167,-8.2235,-8.2222,-8.2275,-8.2297,-8.2263,-8.2324,-8.234,-8.2374,-8.239,-8.2361,-8.2442,-8.2453,-8.2532,-8.2561,-8.2575,-8.2591,-8.2558,-8.2683,-8.2695,-8.2707,-8.2747,-8.2762,-8.2573,-8.2573,-8.2572,-8.2572,0,-8.23,-8.2348,-8.2393,-8.2431,-8.2457,-8.2513,-8.2508,-8.2537,-8.2523,-8.2524,-8.2589,-8.2602,-8.2639,-8.2657,-8.2643,-8.2734,-8.2718,-8.2687,-8.2634,-8.2728,-8.2766,-8.2781,-8.258,-8.2578,-8.2577,-8.2576,0,0,-8.2443,-8.2475,-8.2492,-8.2509,-8.2535,-8.2571,-8.2625,-8.2664,-8.2689,-8.2714,-8.2759,-8.2815,-8.2787,-8.2806,-8.2794,-8.2833,-8.2926,-8.2797,-8.2797,-8.2821,-8.3029,-8.3053,-8.3071,-8.2908,-8.2911,-8.2913,-8.3027,0,-8.2552,-8.2649,-8.264,-8.2732,-8.2776,-8.2745,-8.2793,-8.2813,-8.2816,-8.2853,-8.2854,-8.2895,-8.2854,-8.2866,-8.2903,-8.2906,-8.2967,-8.2898,-8.295,-8.2952,-8.2947,-8.309,-8.3116,-8.3222,-8.3042,-8.3044,-8.3046,0,-8.2691,-8.2724,-8.2822,-8.2843,-8.2861,-8.2904,-8.294,-8.2976,-8.2998,-8.2997,-8.302,-8.3002,-8.3056,-8.3003,-8.3077,-8.303,-8.3051,-8.3055,-8.3059,-8.3064,-8.3005,-8.31,-8.3256,-8.3273,-8.3068,-8.3067,-8.3065,0,-8.2787,-8.2856,-8.2924,-8.2939,-8.2965,-8.2997,-8.3009,-8.3028,-8.3053,-8.3083,-8.3099,-8.3134,-8.3154,-8.3181,-8.3172,-8.3134,-8.3249,-8.3195,-8.3249,-8.325,-8.3275,-8.3274,-8.3438,-8.3287,-8.3287,-8.3286,-8.3286,0,-8.291,-8.2971,-8.2968,-8.301,-8.3077,-8.3066,-8.3132,-8.314,-8.3158,-8.32,-8.3174,-8.3213,-8.3199,-8.3237,-8.323,-8.3294,-8.3302,-8.3302,-8.33,-8.3306,-8.3306,-8.3319,-8.3312,-8.3291,-8.329,-8.3289,-8.3288,0,-8.3029,-8.303,-8.3102,-8.3122,-8.3128,-8.3177,-8.3193,-8.3232,-8.3233,-8.3287,-8.3298,-8.33,-8.3344,-8.3338,-8.3386,-8.3381,-8.3461,-8.3448,-8.3454,-8.3452,-8.3507,-8.3503,-8.3687,-8.371,-8.3543,-8.3545,-8.3546,0,-8.3108,-8.3155,-8.3181,-8.3209,-8.3224,-8.3268,-8.3294,-8.3284,-8.3312,-8.3342,-8.3377,-8.3419,-8.3453,-8.3524,-8.3528,-8.3565,-8.3555,-8.3617,-8.356,-8.3565,-8.3557,-8.3555,-8.356,-8.3628,-8.363,-8.3631,-8.3633,0,-8.3248,-8.3247,-8.3286,-8.3327,-8.3359,-8.339,-8.3417,-8.344,-8.3433,-8.3465,-8.3512,-8.3538,-8.3589,-8.3631,-8.3666,-8.3676,-8.3654,-8.3651,-8.3665,-8.3672,-8.3674,-8.3675,-8.3486,-8.3646,-8.3645,-8.3644,-8.3643,-8.3643,-8.335,-8.3391,-8.3417,-8.3463,-8.3483,-8.351,-8.3548,-8.3556,-8.3595,-8.3637,-8.3628,-8.3681,-8.3703,-8.3748,-8.3762,-8.3802,-8.3779,-8.3801,-8.3806,-8.3812,-8.3819,-8.3667,-8.3808,-8.3808,-8.3808,-8.3807,-8.3807,0,-8.349,-8.3506,-8.3548,-8.359,-8.3625,-8.3603,-8.3633,-8.3664,-8.3711,-8.3734,-8.3769,-8.3822,-8.3864,-8.3872,-8.3911,-8.3942,-8.3932,-8.3953,-8.3951,-8.3954,-8.3837,-8.3821,-8.396,-8.396,-8.396,-8.396,-8.396,-8.396,-8.3568,-8.3637,-8.3639,-8.3718,-8.3732,-8.3785,-8.3805,-8.3829,-8.3848,-8.391,-8.3946,-8.3952,-8.3969,-8.401,-8.4047,-8.4048,-8.4064,-8.4089,-8.4086,-8.3977,-8.3962,-8.3947,-8.3932,-8.4092,-8.4092,-8.42,-8.4201,-8.4201]}]]